This demonstration page uses our WeatherBlox Daily Observations layout. Learn more.

Left ArrowRight Arrow

Hourly Observations for June 3, 2018

Temp ( °F °C ) Dew Point ( °F °C ) Humidity (%) Winds ( mph kmh ) Pressure ( in mb ) Visibility ( mi km ) Precip ( " mm )
12:53 am 00:53 Clear 70 21.1 68 20 93 93 Calm 29.85 1011 8 13 0.00 0.00
1:53 am 01:53 Clear with Mist and Fog 69 20.6 68 20 96 96 Calm 29.84 1010 6 10 0.00 0.00
2:53 am 02:53 Clear with Mist and Fog 68 20 68 20 100 100 Calm 29.84 1010 6 10 0.00 0.00
3:53 am 03:53 Clear with Mist and Fog 67 19.4 67 19.4 100 100 Calm 29.82 1010 6 10 0.00 0.00
4:53 am 04:53 Clear with Mist and Fog 67 19.4 67 19.4 100 100 Calm 29.80 1009 5 8 0.00 0.00
5:53 am 05:53 Mostly Cloudy 68 20 68 20 100 100 Calm 29.80 1009 7 11 0.00 0.00
6:53 am 06:53 Cloudy with Rain 70 21.1 70 21.1 100 100 SSW 3 6 29.81 1010 2 3 0.02 0.51
6:58 am 06:58 Cloudy with Light Rain 70 21.1 70 21.1 100 100 S 5 7 29.83 1010 2 2 0.00 0.03
7:02 am 07:02 Cloudy with Light Rain 70 21.1 70 21.1 100 100 S 3 6 29.83 1010 2 3 0.01 0.25
7:18 am 07:18 Cloudy with Mist and Fog 70 21.1 70 21.1 100 100 Calm 29.83 1010 4 6 0.01 0.25
7:53 am 07:53 Mostly Cloudy with Mist and Fog 71 21.7 71 21.7 100 100 WSW 3 6 29.82 1010 4 6 0.01 0.25
8:18 am 08:18 Mostly Cloudy with Mist and Fog 72 22.2 71 21.7 97 97 W 3 6 29.83 1010 5 8 0.00 0.00
8:53 am 08:53 Cloudy 72 22.2 70 21.1 94 94 W 7 11 29.83 1010 7 11 0.00 0.00
9:53 am 09:53 Mostly Cloudy 77 25 73 22.8 88 88 W 6 9 29.83 1010 10 16 0.00 0.00
10:10 am 10:10 Mostly Cloudy 77 25 71 21.7 82 82 NW 9 15 29.83 1010 10 16 0.00 0.00
10:21 am 10:21 Partly Cloudy 79 26.1 70 21.1 74 74 NW 14 22 29.83 1010 10 16 0.00 0.00
10:53 am 10:53 Cloudy 78 25.6 69 20.6 74 74 WNW 13 20 29.85 1011 10 16 0.00 0.00
11:53 am 11:53 Partly Cloudy 80 26.7 67 19.4 64 64 WNW 16 26 29.85 1011 10 16 0.00 0.00
12:53 pm 12:53 Partly Cloudy 81 27.2 66 18.9 61 61 WNW 14 22 29.86 1011 10 16 0.00 0.00
1:53 pm 13:53 Sunny with Light Rain 81 27.2 63 17.2 54 54 W 12 19 29.86 1011 10 16 0.00 0.03
2:53 pm 14:53 Sunny with Light Rain 82 27.8 57 13.9 42 42 WNW 14 22 29.85 1011 10 16 0.00 0.03
3:53 pm 15:53 Sunny with Light Rain 81 27.2 55 12.8 41 41 W 15 24 29.85 1011 10 16 0.00 0.03
4:53 pm 16:53 Sunny 82 27.8 52 11.1 35 35 W 13 20 29.85 1011 10 16 0.00 0.03
5:53 pm 17:53 Sunny 81 27.2 51 10.6 35 35 WNW 13 20 29.85 1011 10 16 0.00 0.00
6:53 pm 18:53 Sunny 80 26.7 49 9.4 34 34 WNW 14 22 29.86 1011 10 16 0.00 0.00
7:53 pm 19:53 Sunny 78 25.6 50 10 37 37 W 9 15 29.87 1011 10 16 0.00 0.00
8:53 pm 20:53 Sunny 73 22.8 54 12.2 51 51 WSW 6 9 29.87 1012 10 16 0.00 0.00
9:53 pm 21:53 Clear 70 21.1 54 12.2 57 57 WSW 5 7 29.88 1012 10 16 0.00 0.00
10:53 pm 22:53 Clear 69 20.6 53 11.7 57 57 W 5 7 29.89 1012 10 16 0.00 0.00
11:53 pm 23:53 Clear 64 17.8 56 13.3 75 75 Calm 29.90 1013 10 16 0.00 0.00

Powered by AerisWeather